Regional Weather Roundup
Issued by NWS

Home | Current Version | Previous Version | Text Only | Print | Product List | Glossary Off
Versions: 1 2 3 4 5 6 7 8 9 10 11 12 13 14 15 16 17 18 19 20 21 22 23 24 25 26 27 28 29 30 31 32 33 34 35 36 37 38 39 40 41 42 43 44 45 46 47 48 49 50

000
ASUS43 KDTX 272110
RWRMI
MICHIGAN HOURLY REGIONAL WEATHER ROUNDUP
NATIONAL WEATHER SERVICE DETROIT/PONTIAC MI
500 PM EDT WED MAY 27 2015

NOTE: "FAIR" INDICATES FEW OR NO CLOUDS BELOW 12,000 FEET WITH NO
SIGNIFICANT WEATHER AND/OR OBSTRUCTION TO VISIBILITY.

MIZ047>049-052>055-059>063-066>070-074>076-081>083-272200-
SOUTHEAST LOWER MICHIGAN

CITY           SKY/WX    TMP DP  RH WIND       PRES   REMARKS
ADRIAN         CLOUDY    71  63  75 SW10      30.00S
ALMA           PTSUNNY   71  60  69 W13G20    29.94F
ANN ARBOR      CLOUDY    73  61  65 W10       29.99R
BAD AXE        MOSUNNY   75  56  52 W17G26    29.90R
CARO           PTSUNNY   75  56  50 SW17G25   29.91R
DETROIT CITY   CLOUDY    74  63  68 SW12      29.97R
DETROIT        CLOUDY    73  63  70 S16       29.99R
FLINT          CLOUDY    76  57  51 W14G24    29.95R
GROSSE ILE     RAIN      70  63  78 SW12G18   29.98R
HILLSDALE      LGT RAIN  69  65  85 W10       30.01S
HOWELL         CLOUDY    73  63  72 SW14      29.97S

CITY           SKY/WX    TMP DP  RH WIND       PRES   REMARKS
JACKSON        CLOUDY    69  63  81 SW12      29.98F
LAMBERTVILLE   LGT RAIN  68  63  83 SW6       30.01S
LANSING        CLOUDY    73  57  57 W18       29.97R
LAPEER         FAIR      74  61  64 SW13G21   29.94S
MASON          CLOUDY    69  62  79 SW9       29.97S
MONROE         RAIN      68  63  83 SW10G20   29.99R
MT. CLEMENS    PTSUNNY   69  64  82 W8        29.95S
PONTIAC        CLOUDY    68  62  81 SW12      29.97R
PORT HOPE        N/A     75  57  53 W13G25    29.87R
PORT HURON     CLOUDY    63  61  94 SW6       29.97R
TRI CITIES     PTSUNNY   75  60  59 W24G30    29.92R
MIDLAND        FAIR      73  58  60 SW10G21   29.91S
TROY           CLOUDY    72  61  68 W13G22    30.00S
SAGINAW HB     PTSUNNY   73  59  60 W18G26    29.92R
$$
MIZ043>046-050>051-056>058-064>065-071>073-077>080-272200-
SOUTHWEST LOWER MICHIGAN

CITY           SKY/WX    TMP DP  RH WIND       PRES   REMARKS
BATTLE CREEK   CLOUDY    73  58  59 W20G28    29.99S
BENTON HARBOR  PTSUNNY   62  57  83 W8G17     30.02R
BIG RAPIDS     CLOUDY    68  55  63 W15       29.95S
COLDWATER      CLOUDY    67  64  87 SW7       30.00R
FREMONT        PTSUNNY   67  57  70 W6        29.97F
HOLLAND        PTSUNNY   64  58  80 W8        30.01S
GRAND RAPIDS   PTSUNNY   72  59  63 W15       29.98S
IONIA          PTSUNNY   73  58  59 W15G22    29.96R
KALAMAZOO      CLOUDY    72  57  59 W12G24    30.00R
LUDINGTON      CLOUDY    62  55  78 W5        30.00R
MARSHALL       CLOUDY    71  59  66 W9G17     29.98R
MOUNT PLEASANT PTSUNNY   69  59  69 W8G17     29.94R
MUSKEGON       PTSUNNY   66  56  70 CALM      29.98F
SOUTH HAVEN    MOSUNNY   66  58  77 NW10      30.01S
$$
MIZ016>042-272200-
NORTHERN LOWER MICHIGAN

CITY           SKY/WX    TMP DP  RH WIND       PRES   REMARKS
ALPENA         CLOUDY    69  56  62 W13G24    29.87R
BEAVER ISLAND  PTSUNNY   57  53  84 W9        29.92R
BELLAIRE       PTSUNNY   62  57  82 W6        29.94R
CADILLAC       CLOUDY    67  56  67 SW7       29.95R
CHARLEVOIX     PTSUNNY   62  57  82 W14       29.96R
FRANKFORT      MOSUNNY   63  53  69 W6        29.95S
GAYLORD        PTSUNNY   61  57  87 NW10G17   29.91F
GRAYLING       PTSUNNY   66  55  68 W7        29.93S
HARBOR SPRINGS CLOUDY    53  51  95 SW3       29.93R
HOUGHTON LAKE  CLOUDY    66  56  70 W13       29.93R
MANISTEE       MOSUNNY   63  54  72 W6        29.98R
OSCODA         MOSUNNY   77  56  49 W18G33    29.86R
ROGERS CITY    CLOUDY    64  57  79 W12G22    29.88R
TRAVERSE CITY  PTSUNNY   68  58  70 W9        29.92R
$$
MIZ007>008-015-272200-
EASTERN UPPER MICHIGAN

CITY           SKY/WX    TMP DP  RH WIND       PRES   REMARKS
KINROSS        CLOUDY    55  55 100 NW14      29.87R
MACKINAC ISLAN CLOUDY    52  52 100 W15G21    29.89R
NEWBERRY       CLOUDY    60  57  90 W13G18    29.89R
S. S. MARIE    LGT RAIN  49  46  90 W7        29.87R
MUNISING         N/A     70  58  65 VRB3      29.87R
$$
MIZ004>006-011>014-085-272200-
CENTRAL UPPER MICHIGAN

CITY           SKY/WX    TMP DP  RH WIND       PRES   REMARKS
MANISTIQUE     CLOUDY    66  57  72 SW6       29.90R
ESCANABA       MOSUNNY   63  55  77 S16G23    29.88S
MENOMINEE      MOSUNNY   73  59  60 SW10G17   29.89F
SAWYER-GWINN   PTSUNNY   72  61  68 S3        29.87S
$$
MIZ001>003-009>011-084-272200-
WESTERN UPPER MICHIGAN

CITY           SKY/WX    TMP DP  RH WIND       PRES   REMARKS
IRON MOUNTAIN  MOSUNNY   74  59  59 W18G24    29.87R
HOUGHTON       MOSUNNY   72  53  51 W16       29.86R
COPPER HARBOR    N/A     60  49  66 N14       29.84R
IRONWOOD       MOSUNNY   79  55  44 W10       29.86S
$$

ABBREVIATIONS USED IN REMARKS
   TC - TEMPERATURE IN CELSIUS
  WCI - WIND CHILL INDEX
   HX - HEAT INDEX
  VSB - VISIBILITY




USA.gov is the U.S. government's official web portal to all federal, state and local government web resources and services.